Wind_Speed
38 39 40 40 40 40 40 40 40 41 41 41 41 41 41 42 44 45 46 47 48 49 49 49 49 49 51 52 53 53 54 54 55 56 57 57 57 58 58 58 58 59
39 40 41 42 42 42 42 42 42 42 42 43 43 43 43 44 45 46 47 48 49 50 51 51 50 51 52 53 54 55 55 55 56 57 58 58 59 60 60 60 60 60
38 40 41 42 43 44 44 44 44 44 43 44 44 45 45 46 46 48 49 50 51 51 52 52 51 52 53 54 55 56 56 56 57 58 58 59 60 61 61 61 61 62
36 38 40 42 43 45 46 46 46 46 46 46 46 47 47 47 48 49 50 51 52 53 53 53 53 53 54 55 56 56 57 57 58 58 59 60 60 61 62 62 62 62
35 36 38 41 43 45 46 47 48 49 49 50 49 49 49 49 50 51 52 53 54 54 54 54 54 54 55 56 57 57 57 58 58 59 60 61 61 62 62 63 62 62
34 35 37 38 40 42 44 46 48 50 51 52 52 53 53 52 53 53 54 55 55 56 55 55 54 55 56 57 57 57 58 58 59 60 60 61 62 62 62 62 62 62
33 35 36 38 39 41 42 44 46 48 50 52 53 54 55 55 55 56 56 56 57 57 57 56 56 56 56 57 57 58 58 59 59 60 61 61 62 62 62 62 62 61
34 35 36 38 39 41 42 44 45 47 49 51 52 54 55 56 56 56 57 58 58 59 58 58 58 57 57 58 58 59 59 59 60 61 61 61 62 62 62 61 61 60
35 36 37 38 39 40 41 43 44 46 48 50 52 53 55 55 56 57 57 58 59 59 59 59 59 59 59 59 59 60 60 60 60 61 61 61 61 61 61 60 59 58
36 37 38 39 40 41 42 43 44 46 47 49 50 52 54 55 56 57 58 59 59 60 60 60 60 60 60 60 61 61 62 61 61 61 61 61 61 61 59 59 58 58
37 38 39 41 42 44 45 46 47 48 48 49 50 52 54 55 57 58 59 60 61 61 61 61 61 61 61 61 61 62 62 62 61 61 60 60 61 60 59 59 58 58
38 39 41 42 44 46 47 48 50 51 51 52 53 54 55 56 57 59 60 61 61 62 62 61 61 61 61 61 61 61 62 62 62 61 59 59 60 59 58 58 57 57
39 40 41 43 45 47 49 50 52 53 54 55 55 56 57 58 59 59 60 61 61 61 62 62 62 62 61 61 61 61 61 62 61 61 59 59 58 58 58 58 58 57
40 41 42 44 45 47 49 50 51 53 53 54 55 56 57 58 59 60 60 61 61 61 61 61 61 61 61 61 60 61 61 61 60 60 60 60 59 59 59 58 56 55
42 43 43 44 46 47 48 49 50 51 52 53 54 54 55 56 57 58 59 60 60 61 61 61 61 61 60 60 60 60 60 60 60 60 60 60 59 58 57 55 54 53
43 43 44 45 46 47 48 49 49 50 50 51 52 53 53 54 55 55 56 57 58 59 60 60 61 61 61 60 60 59 59 58 58 58 58 57 56 56 55 54 54 54
43 44 45 45 46 47 47 47 48 48 48 49 49 51 52 52 53 53 53 54 55 55 56 57 58 58 59 58 58 58 57 56 56 56 55 55 54 54 54 54 55 55
43 44 45 46 46 46 46 47 47 48 48 49 49 50 51 52 52 53 53 53 54 54 55 56 57 57 57 57 56 56 55 55 55 55 55 55 55 55 55 55 55 55
43 43 44 44 45 46 46 47 48 48 49 50 50 51 52 52 53 54 54 55 54 54 55 55 56 57 57 56 55 54 54 54 54 55 55 55 55 55 56 56 56 55
41 41 41 42 42 43 44 45 47 48 48 50 51 52 53 54 54 55 55 55 55 54 54 55 55 56 56 55 54 54 54 54 55 55 56 56 56 57 57 57 57 56
38 38 39 39 40 42 43 45 46 47 48 49 50 51 53 54 55 56 56 55 55 54 54 54 54 54 54 54 54 54 55 56 56 57 58 58 58 58 57 57 57 57
38 38 39 41 42 44 45 47 48 49 49 50 51 52 53 54 55 56 56 55 55 54 54 54 53 53 53 54 55 55 56 57 57 57 57 56 56 56 56 56 55 54
40 41 43 45 46 47 47 48 49 49 50 51 52 53 54 55 56 56 56 56 56 55 56 55 54 53 53 54 54 54 55 55 55 55 55 54 53 54 54 53 51 48
43 44 45 46 46 46 46 46 47 48 49 51 52 53 54 54 54 55 55 55 55 55 55 54 52 51 51 52 52 52 51 52 52 53 53 52 52 51 49 47 45 43
43 43 43 42 42 42 43 44 45 46 47 49 50 50 51 50 50 49 49 49 49 50 50 49 48 47 47 47 47 47 48 49 50 50 49 48 47 45 43 41 40 40
41 40 40 39 40 40 41 42 43 44 45 46 47 47 47 46 46 45 45 45 44 44 45 45 45 45 44 44 44 44 44 44 44 43 42 41 41 40 39 39 40 41
Wind_Direction
279 278 277 275 275 274 274 274 274 274 275 276 278 278 278 278 278 278 278 278 278 279 279 280 282 283 283 284 284 285 285 286 286 287 287 288 289 290 292 293 295 296
279 279 278 277 276 275 274 274 275 275 276 277 278 278 278 278 278 279 279 279 279 280 280 282 283 283 283 284 284 285 286 286 286 287 288 288 289 290 291 293 294 296
278 279 279 279 278 277 276 276 276 276 276 276 277 277 278 278 279 279 280 280 280 281 282 282 283 283 283 284 284 285 285 286 286 287 288 288 289 290 291 293 294 295
278 280 280 281 281 281 280 279 279 278 277 276 276 276 277 278 278 279 280 280 281 281 282 282 283 283 283 284 284 285 285 286 286 287 287 288 289 290 291 293 294 295
279 280 281 282 282 283 283 282 282 281 280 279 278 278 277 277 278 278 279 279 280 280 281 282 283 283 283 284 285 285 285 286 286 287 287 288 289 290 291 293 294 295
281 281 281 281 281 282 282 282 282 282 282 281 281 280 279 279 278 278 279 279 280 281 282 283 283 283 283 284 284 285 285 286 286 287 288 288 289 290 291 292 293 295
283 283 282 282 282 281 281 281 281 281 282 282 282 282 282 281 280 280 280 280 280 281 282 283 283 283 283 283 283 284 284 285 286 286 287 288 289 290 291 292 293 294
287 286 285 284 283 282 281 281 281 281 282 282 283 283 282 282 282 281 281 281 281 282 282 283 283 283 283 283 283 283 283 284 285 285 286 288 289 290 290 292 293 293
287 287 286 285 284 282 281 280 279 279 280 280 281 282 282 283 283 282 282 282 283 283 283 284 284 284 284 284 283 284 284 284 284 285 286 287 288 288 290 291 292 292
285 285 285 284 284 283 282 281 280 279 279 279 280 280 281 282 282 282 282 283 283 284 284 285 285 285 285 285 285 285 285 285 285 285 286 287 287 288 289 290 291 291
285 285 285 285 285 284 284 283 282 281 281 280 280 280 281 282 282 283 283 283 284 284 285 285 286 286 286 286 285 285 285 285 285 285 286 286 287 288 289 290 291 292
285 285 285 286 286 286 285 285 284 283 282 282 281 281 281 282 283 284 284 285 285 285 286 286 286 286 286 286 286 286 286 286 286 286 286 286 287 289 290 290 291 291
283 284 284 284 284 285 285 286 285 285 284 284 283 283 283 283 283 284 285 285 286 286 287 287 287 287 287 287 287 287 287 287 287 287 287 287 288 288 289 289 290 290
282 281 281 281 281 282 283 284 285 286 286 286 287 286 286 286 285 285 285 285 286 286 286 286 286 287 287 287 288 288 288 288 288 288 288 288 288 288 289 290 290 290
283 283 282 281 281 282 282 283 284 285 286 287 287 288 288 287 287 286 286 286 285 285 285 285 285 285 286 286 287 287 287 288 288 288 288 288 289 290 290 290 290 289
284 284 284 284 283 283 284 285 285 286 287 287 287 287 287 287 287 287 287 286 286 285 285 285 285 285 286 286 286 286 286 287 287 287 288 289 289 290 290 290 289 289
285 285 285 284 284 285 285 286 287 287 287 287 287 287 286 286 287 287 287 287 287 287 287 287 287 287 287 287 287 286 286 286 287 287 288 288 288 289 289 289 290 290
284 284 285 285 286 287 288 289 289 289 288 288 287 287 286 286 287 288 288 289 289 290 290 290 290 289 289 289 288 287 287 286 286 287 287 287 288 289 290 290 290 291
285 286 287 288 289 290 290 291 291 291 290 290 289 289 289 289 289 290 291 291 292 293 293 292 292 291 290 289 288 287 286 286 286 287 287 288 289 290 290 290 291 291
288 288 289 290 290 290 290 290 290 291 291 291 292 291 291 291 291 291 292 293 294 294 294 294 293 291 290 289 287 286 285 285 286 287 288 288 289 290 290 291 291 291
288 288 288 289 289 289 290 290 291 291 291 291 291 291 291 291 291 291 292 293 294 295 295 296 295 294 292 290 287 286 285 285 286 287 288 288 289 290 290 291 291 291
286 287 287 288 289 289 290 290 290 289 289 289 289 288 288 288 288 289 290 291 293 294 295 296 296 295 293 291 289 288 287 287 287 288 289 289 290 290 291 291 290 290
287 288 289 289 289 289 289 288 288 288 287 288 288 288 287 288 288 289 290 292 293 294 294 294 294 293 292 291 290 289 289 289 289 290 291 291 291 290 290 289 288 287
288 289 289 290 289 289 289 289 289 289 289 290 290 291 291 291 292 293 294 295 295 295 294 294 294 293 292 291 291 291 291 291 291 291 291 290 289 288 287 287 286 286
291 290 290 291 291 291 291 291 291 292 292 292 293 294 294 295 295 295 295 296 296 296 296 296 296 295 294 293 292 292 291 290 288 288 287 286 286 285 286 286 287 288
293 293 293 294 294 294 294 293 293 292 292 292 293 293 294 295 295 296 297 297 298 299 299 298 298 296 295 293 291 290 289 287 286 286 286 286 286 287 287 288 289 289
Height
5836 5836 5835 5835 5835 5835 5835 5835 5834 5834 5834 5833 5833 5833 5832 5831 5829 5828 5827 5826 5825 5824 5823 5822 5821 5820 5818 5816 5814 5812 5811 5809 5808 5806 5804 5802 5800 5798 5796 5795 5792 5790
5832 5831 5831 5831 5831 5830 5830 5829 5829 5829 5829 5828 5828 5827 5826 5825 5824 5822 5821 5820 5819 5818 5817 5817 5816 5815 5813 5811 5809 5807 5806 5804 5802 5800 5798 5797 5795 5792 5791 5789 5788 5785
5827 5827 5826 5826 5826 5826 5826 5825 5825 5825 5824 5823 5823 5822 5821 5819 5818 5817 5815 5814 5813 5812 5812 5811 5810 5809 5807 5805 5803 5802 5800 5798 5796 5795 5793 5791 5789 5787 5785 5784 5782 5780
5822 5822 5822 5822 5822 5822 5821 5821 5821 5820 5820 5819 5818 5817 5816 5814 5813 5812 5810 5809 5808 5806 5806 5805 5804 5803 5801 5799 5798 5796 5794 5793 5791 5789 5787 5786 5784 5782 5780 5778 5776 5774
5818 5818 5817 5817 5817 5816 5816 5816 5815 5815 5814 5814 5813 5812 5811 5810 5808 5807 5805 5804 5802 5801 5800 5800 5799 5797 5795 5794 5792 5791 5789 5787 5785 5783 5781 5780 5778 5776 5774 5772 5770 5768
5813 5812 5812 5811 5811 5810 5810 5810 5809 5808 5808 5808 5807 5806 5806 5805 5803 5802 5800 5798 5797 5796 5795 5794 5794 5792 5790 5788 5787 5785 5784 5782 5779 5777 5776 5774 5772 5770 5768 5766 5764 5762
5807 5807 5806 5805 5805 5804 5804 5803 5802 5802 5801 5801 5800 5800 5799 5798 5797 5796 5794 5793 5791 5790 5789 5788 5787 5786 5784 5782 5781 5779 5778 5776 5774 5772 5770 5768 5766 5764 5762 5760 5758 5756
5802 5801 5800 5800 5799 5798 5798 5797 5796 5795 5794 5794 5793 5793 5792 5791 5790 5789 5788 5786 5785 5784 5783 5782 5780 5779 5778 5776 5774 5773 5771 5770 5768 5766 5763 5762 5760 5757 5756 5754 5752 5750
5796 5796 5795 5794 5794 5793 5792 5791 5790 5789 5788 5787 5787 5786 5785 5784 5783 5782 5780 5779 5778 5777 5776 5775 5773 5772 5771 5769 5768 5766 5765 5764 5762 5760 5757 5755 5753 5751 5750 5748 5746 5744
5791 5790 5790 5789 5788 5787 5787 5786 5785 5784 5783 5782 5781 5780 5779 5777 5776 5775 5774 5772 5771 5770 5769 5768 5767 5765 5764 5762 5761 5759 5758 5757 5755 5753 5751 5748 5746 5745 5744 5742 5740 5738
5785 5785 5784 5783 5782 5782 5781 5780 5779 5778 5777 5776 5775 5774 5772 5771 5770 5769 5767 5766 5764 5763 5762 5761 5760 5759 5757 5755 5754 5752 5750 5749 5748 5746 5745 5742 5740 5739 5737 5735 5733 5731
5779 5779 5778 5777 5776 5776 5775 5774 5773 5772 5771 5770 5769 5768 5766 5765 5764 5762 5761 5759 5758 5757 5756 5755 5754 5752 5750 5749 5747 5745 5743 5742 5741 5740 5738 5736 5733 5732 5731 5729 5727 5724
5774 5773 5772 5771 5770 5769 5768 5768 5766 5765 5765 5763 5762 5761 5760 5759 5757 5756 5754 5753 5752 5750 5749 5748 5747 5746 5744 5742 5741 5739 5737 5735 5734 5733 5732 5730 5728 5726 5724 5722 5720 5718
5768 5767 5766 5765 5764 5763 5762 5761 5760 5759 5758 5757 5755 5754 5753 5752 5751 5749 5748 5746 5745 5744 5742 5741 5740 5739 5738 5735 5734 5732 5730 5729 5727 5726 5724 5722 5721 5718 5717 5715 5713 5711
5761 5760 5760 5758 5758 5757 5755 5754 5753 5752 5751 5750 5749 5748 5746 5745 5744 5742 5741 5740 5739 5737 5735 5734 5733 5732 5731 5729 5727 5725 5723 5722 5720 5718 5716 5714 5713 5711 5709 5708 5706 5704
5755 5754 5753 5752 5751 5750 5749 5748 5747 5746 5745 5743 5742 5740 5739 5738 5736 5735 5734 5732 5731 5730 5728 5727 5726 5725 5723 5722 5720 5718 5716 5715 5713 5711 5710 5708 5706 5704 5703 5701 5700 5698
5749 5748 5748 5746 5745 5744 5743 5742 5741 5740 5738 5737 5736 5734 5732 5731 5730 5728 5727 5726 5724 5723 5722 5720 5719 5717 5716 5714 5713 5711 5710 5708 5707 5705 5704 5702 5700 5699 5697 5695 5693 5692
5743 5743 5742 5741 5740 5739 5737 5736 5735 5733 5732 5730 5729 5728 5726 5725 5723 5722 5720 5719 5717 5716 5714 5713 5711 5710 5709 5707 5706 5704 5703 5702 5700 5699 5698 5696 5695 5693 5691 5689 5687 5685
5738 5737 5736 5735 5734 5733 5731 5730 5728 5727 5725 5724 5722 5721 5719 5718 5716 5715 5713 5712 5710 5709 5707 5706 5705 5703 5702 5700 5699 5698 5697 5695 5694 5693 5691 5690 5688 5686 5684 5682 5680 5678
5732 5731 5730 5729 5728 5726 5725 5724 5722 5721 5719 5718 5716 5714 5713 5711 5709 5708 5706 5705 5703 5702 5700 5699 5698 5696 5695 5694 5693 5691 5690 5689 5688 5686 5685 5683 5681 5679 5677 5675 5673 5671
5726 5725 5724 5723 5722 5721 5719 5718 5716 5715 5713 5712 5710 5709 5707 5705 5703 5701 5700 5698 5696 5695 5694 5692 5691 5689 5688 5687 5686 5685 5684 5683 5681 5680 5678 5676 5674 5672 5669 5667 5665 5663
5720 5719 5718 5717 5716 5715 5713 5712 5710 5709 5707 5706 5704 5702 5700 5699 5697 5695 5693 5692 5690 5688 5687 5686 5684 5683 5682 5680 5679 5678 5677 5675 5674 5672 5671 5669 5667 5665 5662 5660 5658 5657
5714 5713 5711 5710 5709 5708 5707 5705 5703 5702 5700 5699 5698 5696 5694 5693 5691 5689 5688 5686 5685 5683 5681 5680 5678 5676 5675 5673 5672 5671 5670 5668 5667 5665 5664 5663 5661 5658 5655 5654 5652 5650
5707 5706 5705 5703 5702 5701 5700 5698 5697 5696 5694 5693 5692 5690 5689 5687 5686 5684 5682 5681 5679 5677 5675 5673 5671 5669 5668 5666 5665 5664 5663 5661 5660 5659 5657 5655 5654 5651 5649 5647 5646 5644
5701 5700 5698 5697 5696 5695 5694 5692 5691 5690 5688 5687 5685 5684 5682 5681 5679 5678 5676 5674 5673 5670 5668 5667 5665 5663 5661 5660 5658 5657 5656 5655 5653 5652 5650 5649 5647 5645 5643 5641 5640 5638
5694 5693 5692 5691 5690 5689 5687 5686 5685 5683 5682 5680 5679 5677 5676 5674 5673 5671 5670 5668 5666 5664 5662 5660 5658 5657 5655 5654 5653 5651 5650 5649 5647 5646 5644 5643 5641 5639 5638 5636 5635 5633